Location: Adavinekkalam
(16.6301°N, 80.7229°E)
Time: 05:39:16
(UTC+00:00)

USA 215 - Pass Details

Date: 15 May 2026
Orbit: 1098 x 1109 km, 123.0° (Epoch: 10 January)

Event Time Altitude Azimuth Distance (km) Brightness Sun altitude
Exits shadow 15:07:42 67° 100° (E) 1,179 3.1 -28.1°
Maximum altitude 15:08:28 74° 51° (NE) 1,135 3.1 -28.3°
Drops below altitude 10° 15:14:57 10° 328° (NNW) 2,948 6.3 -29.6°
Sets 15:17:26 0° 326° (NW) 3,908 7.1 -30.1°
